Goshen, IN

10:02 PM EST on January 22, 2018 (GMT -0500)
Goshen Municipal

Weather History for KGSH - January, 2013

Change the Weather History Date:

Friday, January 18, 2013

  Actual Average Record
Temperature  
Mean Temperature 29 °F -  
Max Temperature 37 °F 30 °F 60 °F (1973)
Min Temperature 21 °F 16 °F -9 °F (1997)
Degree Days  
Heating Degree Days 36    
Moisture  
Dew Point 18 °F    
Average Humidity 62    
Maximum Humidity 78    
Minimum Humidity 50    
Precipitation  
Precipitation 0.00 in - - ()
Sea Level Pressure  
Sea Level Pressure 30.28 in    
Wind  
Wind Speed 12 mph (SSW)    
Max Wind Speed 23 mph    
Max Gust Speed 34 mph    
Visibility 10 miles    
Events      
Averages and records for this station are not official NWS values.
T = Trace of Precipitation, MM = Missing Value Source: NWS Daily Summary

Daily Weather History Graph

Daily Weather History Graph

Search for Another Location

Airport or City:

Trip Planner

Search our weather history database for the weather conditions in past years. The results will help you decide how hot, cold, wet, or windy it might be!

Date:

Astronomy

Jan. 18, 2013 Rise Set
Actual Time 8:05 AM EST 5:42 PM EST
Civil Twilight 7:35 AM EST 6:12 PM EST
Nautical Twilight 7:01 AM EST 6:46 PM EST
Astronomical Twilight 6:28 AM EST 7:19 PM EST
Moon 11:37 AM EST (1/18) 12:37 AM EST (1/18)
Length of Visible Light 10h 37m
Length of Day
9h 36m
Waxing Crescent, 47% of the Moon is Illuminated
Jan 18
Waxing Crescent
Jan 18
First Quarter
Jan 26
Full
Feb 3
Last Quarter
Feb 10
New

Hourly Weather History & Observations

Time (EST) Temp. Windchill Dew Point Humidity Pressure Visibility Wind Dir Wind Speed Gust Speed Precip Events Conditions
12:53 AM 24.1 °F 16.0 °F 16.0 °F 71% 30.38 in 10.0 mi WSW 6.9 mph - N/A   Overcast
1:53 AM 24.1 °F 14.4 °F 14.0 °F 65% 30.41 in 10.0 mi WSW 9.2 mph - N/A   Overcast
2:53 AM 23.0 °F 11.7 °F 12.9 °F 65% 30.43 in 10.0 mi WSW 11.5 mph - N/A   Mostly Cloudy
3:53 AM 21.9 °F 11.7 °F 12.9 °F 68% 30.43 in 10.0 mi SW 9.2 mph - N/A   Mostly Cloudy
4:53 AM 21.0 °F 11.4 °F 12.9 °F 71% 30.43 in 10.0 mi SW 8.1 mph - N/A   Mostly Cloudy
5:53 AM 21.0 °F 12.4 °F 12.9 °F 71% 30.44 in 10.0 mi SW 6.9 mph - N/A   Clear
6:53 AM 21.9 °F 11.7 °F 14.0 °F 72% 30.45 in 10.0 mi SW 9.2 mph - N/A   Clear
7:53 AM 21.0 °F 12.4 °F 14.0 °F 74% 30.45 in 10.0 mi SSW 6.9 mph - N/A   Clear
8:53 AM 21.0 °F 10.6 °F 15.1 °F 78% 30.45 in 10.0 mi SSW 9.2 mph - N/A   Mostly Cloudy
9:53 AM 24.1 °F 12.5 °F 16.0 °F 71% 30.44 in 10.0 mi South 12.7 mph - N/A   Overcast
10:53 AM 28.0 °F 17.0 °F 18.0 °F 66% 30.43 in 10.0 mi South 13.8 mph - N/A   Clear
11:53 AM 30.0 °F 19.5 °F 18.0 °F 61% 30.39 in 10.0 mi South 13.8 mph - N/A   Clear
12:53 PM 33.1 °F 22.2 °F 19.9 °F 59% 30.34 in 10.0 mi SSW 17.3 mph 24.2 mph N/A   Mostly Cloudy
1:53 PM 35.1 °F 24.1 °F 21.0 °F 57% 30.27 in 10.0 mi SSW 19.6 mph 25.3 mph N/A   Scattered Clouds
2:53 PM 35.1 °F 24.1 °F 21.0 °F 57% 30.23 in 10.0 mi SSW 19.6 mph 29.9 mph N/A   Clear
3:53 PM 37.0 °F 26.4 °F 21.0 °F 52% 30.18 in 10.0 mi SSW 20.7 mph 31.1 mph N/A   Clear
4:53 PM 37.0 °F 26.4 °F 21.0 °F 52% 30.15 in 10.0 mi SSW 20.7 mph 27.6 mph N/A   Clear
5:53 PM 35.1 °F 23.8 °F 21.0 °F 57% 30.12 in 10.0 mi South 20.7 mph 28.8 mph N/A   Clear
6:53 PM 36.0 °F 24.4 °F 19.9 °F 52% 30.09 in 10.0 mi South 23.0 mph 29.9 mph N/A   Clear
7:53 PM 37.0 °F 26.2 °F 19.9 °F 50% 30.07 in 10.0 mi SSW 21.9 mph 34.5 mph N/A   Clear
8:53 PM 37.0 °F 26.4 °F 21.9 °F 54% 30.06 in 10.0 mi SSW 20.7 mph 28.8 mph N/A   Clear
9:53 PM 37.9 °F 27.3 °F 23.0 °F 55% 30.06 in 10.0 mi SW 21.9 mph 33.4 mph N/A   Clear
10:53 PM 37.0 °F 27.4 °F 24.1 °F 59% 30.04 in 10.0 mi SSW 17.3 mph 26.5 mph N/A   Clear
11:53 PM 37.0 °F 27.7 °F 24.1 °F 59% 30.02 in 10.0 mi SSW 16.1 mph 24.2 mph N/A   Clear